User: anonymous   Login
Location: Chandrammap?lem
(16.9200°N, 81.0051°E)
Time: 02:24:37
(UTC+00:00)
Language:

Cosmos 2369 Rocket - Orbit

View from above orbital plane
View from above orbital plane
View from above satellite
View from above satellite

Ground track
Ground track

The orbit is defined by the following mean orbital elements,

1 26070U          26101.86530294 +.00000000 +00000-0 -98284-4 0 00001
2 26070  71.0046  28.0777 0014837 137.2846 222.9433 14.15830464    01
Epoch (UTC): 11 April 2026 20:46:02
Eccentricity: 0.0014837
inclination: 71.0046°
perigee height: 829 km
apogee height: 850 km
right ascension of ascending node: 28.0777°
argument of perigee: 137.2846°
revolutions per day: 14.15830464
mean anomaly at epoch: 222.9433°

The dashed part of the orbit path shows where the satellite is in the earth's shadow,  

DLR